Weather Roundup
Issued by NWS Springfield, MO

Home | Current Version | Previous Version | Text Only | Print | Product List | Glossary On
Versions: 1 2 3 4 5 6 7 8 9 10 11 12 13 14 15 16 17 18 19 20 21 22 23 24 25 26 27 28 29 30 31 32 33 34 35 36 37 38 39 40 41 42 43 44 45 46 47 48 49 50
000
NZUS99 KSGF 041107
HRRSGF

HOURLY WEATHER
NATIONAL WEATHER SERVICE SPRINGFIELD MO
600 AM CDT WED MAY 04 2016

......SGF CWA......

CITY           SKY/WX    TMP DP  RH WIND       PRES   REMARKS
SPRINGFIELD    CLEAR     55  43  63 W14       29.87F
JOPLIN         CLEAR     52  45  77 SW9       29.92S
WEST PLAINS    CLEAR     45  39  79 SW3       29.87F
ROLLA          CLOUDY    48  43  82 S10       29.76F
OSAGE BEACH    MOCLDY    55  39  54 SW9       29.80F

......SURROUNDING SGF CWA......

CITY           SKY/WX    TMP DP  RH WIND       PRES   REMARKS
CHANUTE        CLEAR     52  44  74 W7        29.91F
PARSONS        CLEAR     46  45  96 CALM      29.94S
COFFEYVILLE    CLEAR     53  45  74 W7        29.94S
EMPORIA        CLEAR     53  44  71 W10       29.92S
GROVE OK       CLEAR     55  48  76 SW7       29.94F
ROGERS AR      PTCLDY    49  44  83 SW8       29.95F
SILOAM SPRINGS CLEAR     48  39  71 SW7       29.97S
HARRISON AR    CLEAR     57  43  59 W12G22    29.91F
NEAR YELLVILLE CLEAR    N/A N/A N/A CALM      29.87S

......KANSAS AND MISSOURI......

CITY           SKY/WX    TMP DP  RH WIND       PRES   REMARKS
KANSAS CTY INT CLEAR     53  43  68 NW9       29.86R
DOWNTOWN KC    CLEAR     56  43  61 NW6       29.85R
COLUMBIA       MOCLDY    57  45  64 W13       29.76R
SEDALIA        CLEAR     56  45  66 W12       29.81R
ST JOSEPH      CLEAR     53  40  61 N13       29.87R
ST LOUIS       CLOUDY    57  45  64 W12       29.71F
SPIRIT OF STL  CLOUDY    56  45  66 SW16      29.70F
KIRKSVILLE     CLEAR     53  40  61 NW12      29.77R
WICHITA        CLEAR     54  45  71 W10       29.98F
TOPEKA         CLEAR     52  44  74 W7        29.90S
OLATHE         CLEAR     54  43  66 NW12G17   29.86S

......TENNESSEE......

CITY           SKY/WX    TMP DP  RH WIND       PRES   REMARKS
MEMPHIS        PTCLDY    52  47  83 CALM      29.90F
NASHVILLE      CLEAR     47  44  90 S3        29.86S

......ARKANSAS.......

CITY           SKY/WX    TMP DP  RH WIND       PRES   REMARKS
FAYETTEVILLE   CLEAR     51  46  83 SW10      29.96F
FT SMITH       CLEAR     49  45  86 W7        29.98S
LITTLE ROCK    PTCLDY    51  46  83 W6        29.95F

......OKLAHOMA.......

CITY           SKY/WX    TMP DP  RH WIND       PRES   REMARKS
TULSA          CLEAR     54  48  80 W8        29.95F
PONCA CITY     CLEAR     48  44  86 W3        30.00R
MCALESTER      PTCLDY    50  46  86 SW3       30.02S
OKLAHOMA CITY  CLEAR     49  46  90 NW7       30.03S

......IOWA............

CITY           SKY/WX    TMP DP  RH WIND       PRES   REMARKS
DES MOINES     CLEAR     51  35  54 N9        29.86R
QUAD CITIES    CLEAR     48  45  89 N7        29.74R

......ILLINOIS........

CITY           SKY/WX    TMP DP  RH WIND       PRES   REMARKS
QUINCY         CLEAR     53  44  71 NW12      29.71R
CHICAGO        LGT RAIN  45  40  82 N21G32    29.67R




USA.gov is the U.S. government's official web portal to all federal, state and local government web resources and services.